(339616) = 2005 OE19

Discovered at Palomar on 2005-07-31 by NEAT.

Orbit

Orbit type: Main Belt

Note: WebGL enabled browser required.

epoch2024-03-31.0
epoch JD2460400.5
perihelion date2023-01-14.48143
perihelion JD2459958.98143
argument of perihelion (°)184.24977
ascending node (°)170.02721
inclination (°)6.34977
eccentricity0.2166276
perihelion distance (AU)1.7902911
Tisserand w.r.t. Jupiter3.6
ΔV w.r.t. Earth (km/sec)8.5
semimajor axis (AU)2.2853640
mean anomaly (°)125.95625
mean daily motion (°/day)0.28527960
aphelion distance (AU)2.780
period (years)3.45
P-vector [x]0.99493685
P-vector [y]-0.08864160
P-vector [z]-0.04736374
Q-vector [x]0.09866005
Q-vector [y]0.95125298
Q-vector [z]0.29220533
absolute magnitude17.5
phase slope0.15
uncertainty0
referenceMPEC 2024-C115
observations used403
oppositions11
arc length (days)6768
first opposition used2005
last opposition used2024
residual rms (arc-secs)0.76
perturbers coarse indicatorM-v
perturbers precise indicator003Ek
first observation date used2005-07-31.0
last observation date used2024-02-10.0
computer nameMPCLINUX
JD of orbit computation2456731.608414
perihelion JD uncertainty (days)4.4241E-05
argument of perihelion uncertainty (°)3.2978E-05
ascending node uncertainty (°)2.9038E-05
inclination uncertainty (°)6.3469E-06
eccentricity uncertainty 8.8500E-08
perihelion distance uncertainty (AU)1.9581E-07
Minimum Orbit Intersection Distances (in AU)
for orbit epoch: 2460200.5, reference: E2024-CB5
Mercury1.41725
Venus1.0649
Earth0.78469
Mars0.39945
Jupiter2.64955
Saturn6.56584
Uranus15.6699
Neptune27.7493

Observations

411 total observations over interval: 2005 07 31.38574 – 2024 02 10.340204
These data are available for download (format description).

Date (UT) J2000 RA J2000 Dec Magn Location Ref
2005 07 31.38574 23 00 13.99 -00 45 53.5 19.7   644 – Palomar Mountain/NEAT MPS 138935
2005 07 31.40960 23 00 13.99 -00 45 58.0 19.6   644 – Palomar Mountain/NEAT MPS 138935
2005 07 31.43838 23 00 14.00 -00 46 03.4 19.7   644 – Palomar Mountain/NEAT MPS 138935
2005 08 03.31857 23 00 16.06 -00 56 13.8 19.6   704 – Lincoln Laboratory ETS, New Mexico MPS 138935
2005 08 03.35378 23 00 15.87 -00 56 22.0 19.4   704 – Lincoln Laboratory ETS, New Mexico MPS 138935
2005 08 03.36550 23 00 15.79 -00 56 25.9 19.7   704 – Lincoln Laboratory ETS, New Mexico MPS 138935
2005 08 24.43932 22 53 21.78 -03 27 13.2 18.4   644 – Palomar Mountain/NEAT MPS 140241
2005 08 24.46375 22 53 20.87 -03 27 27.5 18.4   644 – Palomar Mountain/NEAT MPS 140241
2005 08 24.48544 22 53 20.08 -03 27 40.4 18.6   644 – Palomar Mountain/NEAT MPS 140241
2005 08 27.31951 22 51 41.02 -03 56 25.5 18.5 R 699 – Lowell Observatory-LONEOS MPS 141115
2005 08 27.34152 22 51 40.21 -03 56 40.0   699 – Lowell Observatory-LONEOS MPS 141115
2005 08 27.36354 22 51 39.27 -03 56 53.1   699 – Lowell Observatory-LONEOS MPS 141115
2005 08 27.38558 22 51 38.41 -03 57 07.5   699 – Lowell Observatory-LONEOS MPS 141115
2005 08 28.42105 22 51 00.82 -04 07 56.5 19.5   608 – Haleakala-AMOS MPS 140241
2005 08 28.43190 22 51 00.38 -04 08 03.9 19.5   608 – Haleakala-AMOS MPS 140241
2005 08 28.44262 22 50 59.94 -04 08 10.6 19.6   608 – Haleakala-AMOS MPS 140241
2005 08 29.18542 22 50 32.75 -04 16 04.5 19.0 V 691 – Steward Observatory, Kitt Peak-Spacewatch MPS 140241
2005 08 29.20269 22 50 32.06 -04 16 15.7 19.0 V 691 – Steward Observatory, Kitt Peak-Spacewatch MPS 140241
2005 08 29.22011 22 50 31.36 -04 16 26.7 18.9 V 691 – Steward Observatory, Kitt Peak-Spacewatch MPS 140241
2005 08 29.30074 22 50 28.01 -04 17 18.9 18.8 V 291 – LPL/Spacewatch II MPS 140241
2005 08 29.30554 22 50 27.82 -04 17 22.0 18.9 V 291 – LPL/Spacewatch II MPS 140241
2005 08 29.31263 22 50 27.52 -04 17 26.6 18.9 V 291 – LPL/Spacewatch II MPS 140241
2005 08 30.25461 22 49 52.27 -04 27 34.1 19.2   704 – Lincoln Laboratory ETS, New Mexico MPS 140241
2005 08 30.26566 22 49 51.73 -04 27 40.5 18.9   704 – Lincoln Laboratory ETS, New Mexico MPS 140241
2005 08 30.27670 22 49 51.29 -04 27 47.2 19.0   704 – Lincoln Laboratory ETS, New Mexico MPS 140241
2005 08 30.28777 22 49 50.83 -04 27 54.8 18.7   704 – Lincoln Laboratory ETS, New Mexico MPS 140241
2005 09 08.25094 22 44 05.48 -06 07 34.5 18.8   704 – Lincoln Laboratory ETS, New Mexico MPS 141115
2005 09 08.27334 22 44 04.43 -06 07 50.0 18.9   704 – Lincoln Laboratory ETS, New Mexico MPS 141115
2005 09 08.28511 22 44 03.96 -06 07 57.1 19.3   704 – Lincoln Laboratory ETS, New Mexico MPS 141115
2005 09 08.29633 22 44 03.49 -06 08 04.7 19.1   704 – Lincoln Laboratory ETS, New Mexico MPS 141115
2005 09 13.18900 22 41 06.64 -07 02 13.0 18.9 V 691 – Steward Observatory, Kitt Peak-Spacewatch MPS 141729
2005 09 13.20638 22 41 05.98 -07 02 24.4 18.9 V 691 – Steward Observatory, Kitt Peak-Spacewatch MPS 141729
2005 09 13.22387 22 41 05.32 -07 02 35.8 19.0 V 691 – Steward Observatory, Kitt Peak-Spacewatch MPS 141729
2005 09 22.19343 22 36 44.56 -08 34 07.3 18.7 R 644 – Palomar Mountain/NEAT MPS 146090
2005 09 22.21523 22 36 44.00 -08 34 19.8 18.8 R 644 – Palomar Mountain/NEAT MPS 146090
2005 09 22.23633 22 36 43.42 -08 34 31.6 18.5 R 644 – Palomar Mountain/NEAT MPS 146090
2005 09 26.12156 22 35 27.16 -09 09 15.2 19.4 V 691 – Steward Observatory, Kitt Peak-Spacewatch MPS 142691
2005 09 26.14760 22 35 26.67 -09 09 28.3 19.4 V 691 – Steward Observatory, Kitt Peak-Spacewatch MPS 142691
2005 09 26.17380 22 35 26.14 -09 09 42.3 20.6 V 691 – Steward Observatory, Kitt Peak-Spacewatch MPS 142691
2005 10 01.15687 22 34 27.85 -09 48 37.7 18.4   704 – Lincoln Laboratory ETS, New Mexico MPS 144012
2005 10 01.16007 22 34 27.87 -09 48 38.9 19.0 V G96 – Mt. Lemmon Survey MPS 144012
2005 10 01.16667 22 34 27.80 -09 48 41.7 19.0 V G96 – Mt. Lemmon Survey MPS 144012
2005 10 01.16759 22 34 27.75 -09 48 42.6 19.4   704 – Lincoln Laboratory ETS, New Mexico MPS 144012
2005 10 01.17336 22 34 27.73 -09 48 44.9 19.1 V G96 – Mt. Lemmon Survey MPS 144012
2005 10 01.17836 22 34 27.67 -09 48 46.9 19.1   704 – Lincoln Laboratory ETS, New Mexico MPS 144012
2005 10 01.18001 22 34 27.66 -09 48 47.4 19.0 V G96 – Mt. Lemmon Survey MPS 144012
2005 10 01.18908 22 34 27.50 -09 48 51.4 19.5   704 – Lincoln Laboratory ETS, New Mexico MPS 144012
2005 10 01.19977 22 34 27.40 -09 48 56.4 19.6   704 – Lincoln Laboratory ETS, New Mexico MPS 144012
2005 10 01.20484 22 34 27.41 -09 48 59.2 19.0 R 699 – Lowell Observatory-LONEOS MPS 144012
2005 10 01.22686 22 34 27.18 -09 49 08.5   699 – Lowell Observatory-LONEOS MPS 144012
2005 10 01.24889 22 34 26.96 -09 49 17.4   699 – Lowell Observatory-LONEOS MPS 144012
2005 10 01.27095 22 34 26.71 -09 49 26.5   699 – Lowell Observatory-LONEOS MPS 144012
2005 10 05.15928 22 34 16.36 -10 14 51.1 19.5   704 – Lincoln Laboratory ETS, New Mexico MPS 144012
2005 10 05.17010 22 34 16.32 -10 14 55.6 19.3   704 – Lincoln Laboratory ETS, New Mexico MPS 144012
2005 10 05.18092 22 34 16.25 -10 14 59.3 19.3   704 – Lincoln Laboratory ETS, New Mexico MPS 144012
2005 10 05.19178 22 34 16.22 -10 15 02.6 19.0   704 – Lincoln Laboratory ETS, New Mexico MPS 144012
2008 05 03.43396 16 41 27.27 -12 22 35.7 20.3 V G96 – Mt. Lemmon Survey MPS 249812
2008 05 03.43677 16 41 27.16 -12 22 34.8 20.2 V G96 – Mt. Lemmon Survey MPS 249812
2008 05 03.43956 16 41 27.09 -12 22 33.9 20.3 V G96 – Mt. Lemmon Survey MPS 249812
2008 05 03.44237 16 41 26.95 -12 22 33.1 20.2 V G96 – Mt. Lemmon Survey MPS 249812
2008 05 14.40531 16 32 59.42 -11 28 11.2 19.9 V G96 – Mt. Lemmon Survey MPS 249812
2008 05 14.41148 16 32 59.10 -11 28 09.4 20.2 V G96 – Mt. Lemmon Survey MPS 249812
2008 05 14.41764 16 32 58.77 -11 28 08.0 19.9 V G96 – Mt. Lemmon Survey MPS 249812
2008 05 14.42384 16 32 58.41 -11 28 05.6 20.2 V G96 – Mt. Lemmon Survey MPS 249812
2008 05 26.38938 16 21 15.92 -10 34 36.5 20.5 V 691 – Steward Observatory, Kitt Peak-Spacewatch MPS 250422
2008 05 26.40699 16 21 14.77 -10 34 32.1 20.6 V 691 – Steward Observatory, Kitt Peak-Spacewatch MPS 250422
2008 05 26.42460 16 21 13.64 -10 34 28.1 20.6 V 691 – Steward Observatory, Kitt Peak-Spacewatch MPS 250422
2008 06 10.35037 16 05 55.29 -09 48 01.1 20.6 V 691 – Steward Observatory, Kitt Peak-Spacewatch MPS 251385
2008 06 10.36805 16 05 54.25 -09 47 58.8 20.3 V 691 – Steward Observatory, Kitt Peak-Spacewatch MPS 251385
2008 06 10.38572 16 05 53.18 -09 47 56.5 21.0 V 691 – Steward Observatory, Kitt Peak-Spacewatch MPS 251385
2008 06 14.25030 16 02 17.74 -09 41 07.4 20.5 V 691 – Steward Observatory, Kitt Peak-Spacewatch MPS 251648
2008 06 14.26799 16 02 16.73 -09 41 05.4 20.5 V 691 – Steward Observatory, Kitt Peak-Spacewatch MPS 251648
2008 06 14.28571 16 02 15.72 -09 41 04.2 20.5 V 691 – Steward Observatory, Kitt Peak-Spacewatch MPS 251648
2008 07 01.27209 15 50 27.52 -09 40 16.4   691 – Steward Observatory, Kitt Peak-Spacewatch MPS 252036
2008 07 01.28515 15 50 27.16 -09 40 18.0   691 – Steward Observatory, Kitt Peak-Spacewatch MPS 252036
2008 07 01.29821 15 50 26.74 -09 40 19.0   691 – Steward Observatory, Kitt Peak-Spacewatch MPS 252036
2011 04 28.15182 12 50 44.16 -00 00 13.0 21.2 V 691 – Steward Observatory, Kitt Peak-Spacewatch MPS 380034
2011 04 28.19173 12 50 42.32 -00 00 00.1 21.6 V 691 – Steward Observatory, Kitt Peak-Spacewatch MPS 380034
2011 04 28.23162 12 50 40.44 +00 00 13.8 21.3 V 691 – Steward Observatory, Kitt Peak-Spacewatch MPS 380034
2012 08 10.26363 00 40 41.78 +05 36 12.4 19.9 G G45 – Space Surveillance Telescope, Atom Site MPS 1609749
2012 08 10.27821 00 40 42.32 +05 36 13.0 20.4 G G45 – Space Surveillance Telescope, Atom Site MPS 1609749
2012 08 10.30928 00 40 43.45 +05 36 10.2 20.4 G G45 – Space Surveillance Telescope, Atom Site MPS 1609749
2012 08 10.41638 00 40 47.45 +05 36 03.9 19.3 G G45 – Space Surveillance Telescope, Atom Site MPS 1609749
2012 09 08.95996 00 45 56.51 +02 55 35.4 19.2   A14 – Les Engarouines Observatory MPS 431325
2012 09 08.98147 00 45 56.04 +02 55 23.6 19.2   A14 – Les Engarouines Observatory MPS 431325
